Location: Chèvreville
(49.1099°N, 2.8495°E)
Time: 14:12:00
(UTC+00:00)

Cosmos 1241 Rocket - Pass Details

Date: 28 January 2023
Orbit: 928 x 1019 km, 65.8° (Epoch: 21 March)

Event Time Altitude Azimuth Distance (km) Brightness Sun altitude
Rises 18:36:19 0° 211° (SSW) 3,676 8.1 -19.2°
Reaches altitude 10° 18:38:51 10° 211° (SSW) 2,744 7.3 -19.6°
Maximum altitude 18:45:19 82° 125° (SE) 1,019 4.5 -20.7°
Enters shadow 18:49:23 25° 40° (NE) 1,913 5.7 -21.3°
